Location: Lafig�re
(44.4503°N, 4.0357°E)
Time: 12:09:11
(UTC+00:00)

Vanguard 2 - Pass Details

Date: 28 January 2021
Orbit: 552 x 2938 km, 32.9° (Epoch: 05 March)

Event Time Altitude Azimuth Distance (km) Brightness Sun altitude
Rises 17:51:39 0° 249° (WSW) 2,713 12.4 -11.6°
Reaches altitude 10° 17:54:30 10° 225° (SW) 1,876 10.5 -12.1°
Maximum altitude 17:57:01 16° 187° (S) 1,650 9.5 -12.5°
Drops below altitude 10° 17:59:53 10° 150° (SSE) 2,182 9.7 -13.0°
Enters shadow 18:02:59 - 131° (SE) 3,211 10.4 -13.6°
